CW2389 Weather Reports


Display with metric or nautical units.
time (UTC)temp
F
wind
direction
speed
MPH
gust
MPH
rain 1hr
in
rain 24hr
in
rain mn
in
humidity
%
barometer
mb
20260503050142 41 180 0.0 3.0 0.00 0.00 0.00 65 1015.6
20260503045629 41 180 0.0 3.0 0.00 0.00 0.00 65 1015.6
20260503045150 41 180 0.0 2.0 0.00 0.00 0.00 65 1015.8
20260503044644 41 179 0.0 2.0 0.00 0.00 0.00 65 1015.8
20260503044134 41 179 1.0 2.0 0.00 0.00 0.00 65 1015.8
20260503043625 41 178 1.0 2.0 0.00 0.00 0.00 65 1015.9
20260503043140 41 177 1.0 2.0 0.00 0.00 0.00 65 1015.9
20260503042631 41 175 1.0 3.0 0.00 0.00 0.00 65 1015.9
20260503042143 41 174 1.0 3.0 0.00 0.00 0.00 64 1015.9
20260503041702 41 175 0.0 2.0 0.00 0.00 0.00 64 1016.1
20260503041132 41 178 0.0 2.0 0.00 0.00 0.00 64 1016.1
20260503040642 41 179 0.0 2.0 0.00 0.00 0.00 64 1016.1
20260503040137 41 178 0.0 2.0 0.00 0.00 0.00 64 1016.2
20260503035628 41 360 1.0 2.0 0.00 0.00 0.00 64 1016.3
20260503035139 41 360 0.0 1.0 0.00 0.00 0.00 63 1016.3
20260503034700 41 360 0.0 2.0 0.00 0.00 0.00 63 1016.4
20260503034126 41 360 0.0 2.0 0.00 0.00 0.00 63 1016.4
20260503033657 41 360 0.0 1.0 0.00 0.00 0.00 63 1016.4
20260503033140 41 360 0.0 2.0 0.00 0.00 0.00 62 1016.4
20260503032631 41 360 0.0 2.0 0.00 0.00 0.00 62 1016.5
20260503032141 41 360 0.0 1.0 0.00 0.00 0.00 62 1016.5
20260503031636 41 360 0.0 0.0 0.00 0.00 0.00 62 1016.5
20260503031126 41 360 0.0 0.0 0.00 0.00 0.00 62 1016.4
20260503030632 41 360 0.0 0.0 0.00 0.00 0.00 62 1016.5
20260503030128 42 360 0.0 0.0 0.00 0.00 0.00 62 1016.6
20260503025648 42 360 0.0 1.0 0.00 0.00 0.00 62 1016.6
20260503025138 42 360 0.0 1.0 0.00 0.00 0.00 61 1016.7
20260503024634 42 360 0.0 1.0 0.00 0.00 0.00 61 1016.7
20260503024143 42 360 0.0 1.0 0.00 0.00 0.00 61 1016.7
20260503023633 42 360 0.0 2.0 0.00 0.00 0.00 61 1016.8
20260503023133 42 360 0.0 2.0 0.00 0.00 0.00 60 1016.8
20260503022644 42 360 0.0 2.0 0.00 0.00 0.00 60 1016.7
20260503022134 42 360 0.0 3.0 0.00 0.00 0.00 60 1016.7
20260503021629 43 360 1.0 3.0 0.00 0.00 0.00 59 1016.8
20260503021140 43 360 2.0 4.0 0.00 0.00 0.00 59 1016.8
20260503020629 43 360 2.0 4.0 0.00 0.00 0.00 58 1016.8
20260503020152 43 360 1.0 4.0 0.00 0.00 0.00 58 1016.8
20260503015638 43 360 2.0 6.0 0.00 0.00 0.00 57 1016.8
20260503015128 43 360 4.0 9.0 0.00 0.00 0.00 57 1016.7
20260503014643 44 360 4.0 9.0 0.00 0.00 0.00 56 1016.7
20260503014134 44 360 2.0 6.0 0.00 0.00 0.00 56 1016.7
20260503013625 44 360 4.0 8.0 0.00 0.00 0.00 56 1016.6
20260503013148 44 360 4.0 10.0 0.00 0.00 0.00 55 1016.6
20260503012639 44 360 4.0 13.0 0.00 0.00 0.00 54 1016.6
20260503012146 45 360 7.0 13.0 0.00 0.00 0.00 54 1016.6
20260503011650 45 360 4.0 12.0 0.00 0.00 0.00 53 1016.6
20260503011130 45 360 6.0 12.0 0.00 0.00 0.00 52 1016.6
20260503010649 45 360 4.0 9.0 0.00 0.00 0.00 52 1016.6
20260503010144 45 360 4.0 10.0 0.00 0.00 0.00 51 1016.5
20260503005655 46 360 5.0 10.0 0.00 0.00 0.00 51 1016.5
20260503005124 46 360 4.0 9.0 0.00 0.00 0.00 50 1016.5
20260503004644 46 360 4.0 8.0 0.00 0.00 0.00 50 1016.5
20260503004126 46 360 3.0 8.0 0.00 0.00 0.00 49 1016.5
20260503003706 47 360 4.0 9.0 0.00 0.00 0.00 48 1016.4
20260503003138 47 360 4.0 9.0 0.00 0.00 0.00 48 1016.4
20260503002637 47 360 3.0 9.0 0.00 0.00 0.00 48 1016.5
20260503002148 48 360 5.0 10.0 0.00 0.00 0.00 47 1016.5
20260503001638 48 360 3.0 11.0 0.00 0.00 0.00 47 1016.5
20260503001128 48 360 5.0 13.0 0.00 0.00 0.00 46 1016.6
20260503000639 48 360 6.0 13.0 0.00 0.00 0.00 46 1016.6
20260503000204 49 360 4.0 10.0 0.00 0.00 0.00 45 1016.6
20260502235632 49 360 5.0 10.0 0.00 0.00 0.00 44 1016.6
20260502235143 50 360 4.0 14.0 0.00 0.00 0.00 44 1016.6
20260502234638 49 360 6.0 14.0 0.00 0.00 0.00 44 1016.6
20260502234129 50 360 7.0 13.0 0.00 0.00 0.00 43 1016.6
20260502233632 50 360 7.0 12.0 0.00 0.00 0.00 43 1016.6
20260502233137 51 360 6.0 12.0 0.00 0.00 0.00 42 1016.6
20260502232648 51 360 4.0 12.0 0.00 0.00 0.00 42 1016.6
20260502232138 50 360 7.0 12.0 0.00 0.00 0.00 42 1016.6
20260502231633 51 360 7.0 12.0 0.00 0.00 0.00 41 1016.6
20260502231213 50 360 3.0 14.0 0.00 0.00 0.00 42 1016.7
20260502230644 50 360 9.0 14.0 0.00 0.00 0.00 42 1016.8
20260502230133 51 360 7.0 13.0 0.00 0.00 0.00 41 1016.8
20260502225705 51 360 7.0 12.0 0.00 0.00 0.00 39 1016.7
20260502225204 51 360 5.0 16.0 0.00 0.00 0.00 40 1016.7
20260502224637 51 360 7.0 13.0 0.00 0.00 0.00 38 1016.8
20260502224129 51 360 6.0 13.0 0.00 0.00 0.00 40 1016.8
20260502223639 51 360 8.0 13.0 0.00 0.00 0.00 40 1016.8
20260502223130 51 360 7.0 12.0 0.00 0.00 0.00 40 1016.8
20260502222641 51 360 3.0 12.0 0.00 0.00 0.00 41 1016.8
20260502222132 51 360 6.0 14.0 0.00 0.00 0.00 41 1016.8
20260502221636 51 360 8.0 14.0 0.00 0.00 0.00 41 1016.8
20260502221147 51 360 10.0 15.0 0.00 0.00 0.00 41 1016.9
20260502220637 50 360 8.0 14.0 0.00 0.00 0.00 41 1016.8
20260502220152 50 360 6.0 14.0 0.00 0.00 0.00 42 1016.9
20260502215647 50 360 7.0 16.0 0.00 0.00 0.00 41 1016.9
20260502215158 50 360 10.0 16.0 0.00 0.00 0.00 41 1016.8
20260502214631 50 360 8.0 13.0 0.00 0.00 0.00 42 1016.9
20260502214143 50 360 7.0 18.0 0.00 0.00 0.00 42 1017.0
20260502213632 50 360 8.0 18.0 0.00 0.00 0.00 42 1016.9
20260502213127 51 360 5.0 14.0 0.00 0.00 0.00 42 1016.9
20260502212647 51 360 6.0 15.0 0.00 0.00 0.00 44 1017.0
20260502212138 50 360 9.0 16.0 0.00 0.00 0.00 44 1016.8
20260502211628 50 360 9.0 16.0 0.00 0.00 0.00 43 1016.9
20260502211138 50 360 8.0 19.0 0.00 0.00 0.00 43 1017.0
20260502210628 50 360 11.0 19.0 0.00 0.00 0.00 43 1017.0
20260502210211 51 360 7.0 13.0 0.00 0.00 0.00 44 1017.1
20260502205640 50 360 6.0 16.0 0.00 0.00 0.00 46 1017.1
20260502205130 50 360 10.0 16.0 0.00 0.00 0.00 44 1017.2
20260502204625 50 360 7.0 14.0 0.00 0.00 0.00 45 1017.2
20260502204132 51 360 6.0 13.0 0.00 0.00 0.00 45 1017.2
20260502203642 50 360 6.0 14.0 0.00 0.00 0.00 46 1017.3
20260502203146 51 360 6.0 14.0 0.00 0.00 0.00 45 1017.3
20260502202656 51 360 7.0 16.0 0.00 0.00 0.00 46 1017.4
20260502202125 50 360 8.0 16.0 0.00 0.00 0.00 46 1017.4
20260502201649 50 360 8.0 15.0 0.00 0.00 0.00 48 1017.4
20260502201135 50 360 8.0 14.0 0.00 0.00 0.00 46 1017.5
20260502200625 50 360 5.0 14.0 0.00 0.00 0.00 48 1017.6
20260502200141 49 360 5.0 18.0 0.00 0.00 0.00 48 1017.5
20260502195632 49 360 11.0 18.0 0.00 0.00 0.00 48 1017.6
20260502195142 49 360 6.0 18.0 0.00 0.00 0.00 49 1017.7
20260502194646 49 360 8.0 15.0 0.00 0.00 0.00 49 1017.9
20260502194136 49 360 7.0 14.0 0.00 0.00 0.00 49 1017.9
20260502193641 49 360 7.0 12.0 0.00 0.00 0.00 50 1018.0
20260502193136 48 360 6.0 16.0 0.00 0.00 0.00 49 1018.0
20260502192627 48 360 10.0 16.0 0.00 0.00 0.00 50 1018.1
20260502192207 48 360 5.0 13.0 0.00 0.00 0.00 50 1018.1
20260502191641 49 360 7.0 19.0 0.00 0.00 0.00 48 1018.1
20260502191132 49 360 6.0 14.0 0.00 0.00 0.00 49 1018.1
20260502190702 49 360 8.0 17.0 0.00 0.00 0.00 50 1018.2
20260502190140 49 360 7.0 15.0 0.00 0.00 0.00 51 1018.3
20260502185651 50 360 7.0 15.0 0.00 0.00 0.00 50 1018.3
20260502185202 49 360 7.0 15.0 0.00 0.00 0.00 52 1018.3
20260502184636 48 360 7.0 15.0 0.00 0.00 0.00 51 1018.4
20260502184127 48 360 6.0 11.0 0.00 0.00 0.00 51 1018.3
20260502183636 48 360 6.0 12.0 0.00 0.00 0.00 51 1018.4
20260502183139 48 360 8.0 12.0 0.00 0.00 0.00 51 1018.5
20260502182645 47 360 6.0 14.0 0.00 0.00 0.00 51 1018.5
20260502182135 47 360 5.0 11.0 0.00 0.00 0.00 52 1018.5
20260502181630 47 360 4.0 9.0 0.00 0.00 0.00 50 1018.5
20260502181142 47 360 4.0 12.0 0.00 0.00 0.00 51 1018.6
20260502180631 47 360 6.0 14.0 0.00 0.00 0.00 51 1018.6
20260502180155 47 232 7.0 13.0 0.00 0.00 0.00 52 1018.6
20260502170128 45 360 5.0 12.0 0.00 0.00 0.00 55 1018.9
20260502164135 45 360 1.0 8.0 0.00 0.00 0.00 53 1019.2
20260502163641 45 360 4.0 9.0 0.00 0.00 0.00 53 1019.3
20260502163145 45 360 4.0 9.0 0.00 0.00 0.00 54 1019.3
20260502162626 45 312 4.0 11.0 0.00 0.00 0.00 55 1019.3
20260502162146 45 360 5.0 11.0 0.00 0.00 0.00 56 1019.3
20260502161641 45 360 4.0 10.0 0.00 0.00 0.00 56 1019.3
20260502161133 45 360 3.0 11.0 0.00 0.00 0.00 55 1019.4
20260502160642 45 360 6.0 15.0 0.00 0.00 0.00 55 1019.6
20260502160134 45 360 4.0 10.0 0.00 0.00 0.00 57 1019.5
20260502152159 44 33 5.0 13.0 0.00 0.00 0.00 57 1019.6
20260502151633 44 360 6.0 13.0 0.00 0.00 0.00 58 1019.5
20260502151143 44 360 5.0 10.0 0.00 0.00 0.00 57 1019.5
20260502150632 44 323 4.0 10.0 0.00 0.00 0.00 57 1019.5
20260502150136 44 360 4.0 9.0 0.00 0.00 0.00 57 1019.6
20260502130638 41 360 2.0 5.0 0.00 0.00 0.00 75 1019.9
20260502130142 40 360 2.0 5.0 0.00 0.00 0.00 77 1019.9
20260502123636 39 360 5.0 9.0 0.00 0.00 0.00 80 1019.8
20260502123135 39 360 5.0 8.0 0.00 0.00 0.00 81 1019.9
20260502122626 38 360 3.0 8.0 0.00 0.00 0.00 81 1019.9
20260502122137 38 333 4.0 8.0 0.00 0.00 0.00 81 1019.9
20260502121632 38 360 2.0 4.0 0.00 0.00 0.00 83 1020.0
20260502121212 37 331 1.0 5.0 0.00 0.00 0.00 84 1020.0
20260502120640 37 360 2.0 8.0 0.00 0.00 0.00 84 1020.0
20260502120135 36 360 2.0 8.0 0.00 0.00 0.00 84 1019.9
20260502115641 36 360 4.0 8.0 0.00 0.00 0.00 84 1019.9
20260502115152 36 360 2.0 5.0 0.00 0.00 0.00 84 1019.9
20260502114635 35 329 1.0 5.0 0.00 0.00 0.00 84 1019.9
20260502114145 35 360 2.0 5.0 0.00 0.00 0.00 85 1019.9
20260502113634 35 360 1.0 3.0 0.00 0.00 0.00 85 1019.9
20260502113128 34 288 0.0 0.0 0.00 0.00 0.00 86 1019.8
20260502112639 33 360 0.0 0.0 0.00 0.00 0.00 86 1019.7
20260502112126 33 360 0.0 0.0 0.00 0.00 0.00 86 1019.7
20260502111650 33 360 0.0 0.0 0.00 0.00 0.00 85 1019.7
20260502111132 32 360 0.0 0.0 0.00 0.00 0.00 86 1019.7
20260502110651 32 360 0.0 0.0 0.00 0.00 0.00 86 1019.7
20260502110214 32 360 0.0 0.0 0.00 0.00 0.00 85 1019.7
20260502105644 32 360 0.0 0.0 0.00 0.00 0.00 85 1019.6
20260502105130 32 360 0.0 0.0 0.00 0.00 0.00 85 1019.6
20260502104644 32 360 0.0 0.0 0.00 0.00 0.00 85 1019.6
20260502104135 32 360 0.0 0.0 0.00 0.00 0.00 84 1019.7
20260502103625 32 360 0.0 0.0 0.00 0.00 0.00 84 1019.7
20260502103149 32 360 0.0 0.0 0.00 0.00 0.00 84 1019.7
20260502102639 32 360 0.0 0.0 0.00 0.00 0.00 83 1019.6
20260502102130 32 360 0.0 0.0 0.00 0.00 0.00 83 1019.5
20260502101650 32 290 0.0 0.0 0.00 0.00 0.00 83 1019.5
20260502101141 33 360 0.0 0.0 0.00 0.00 0.00 83 1019.4
20260502100627 33 360 0.0 1.0 0.00 0.00 0.00 83 1019.4
20260502100142 33 360 0.0 1.0 0.00 0.00 0.00 83 1019.4
20260502091136 34 290 0.0 0.0 0.00 0.00 0.00 80 1019.2
20260502090640 34 290 0.0 0.0 0.00 0.00 0.00 80 1019.2
20260502090155 35 360 0.0 1.0 0.00 0.00 0.00 80 1019.2
20260502071140 37 360 0.0 3.0 0.00 0.00 0.00 77 1019.0
20260502070649 37 360 0.0 3.0 0.00 0.00 0.00 76 1019.0
20260502070144 37 360 0.0 2.0 0.00 0.00 0.00 76 1019.0
20260502065635 37 360 0.0 1.0 0.00 0.00 0.00 76 1019.0
20260502065144 37 360 0.0 0.0 0.00 0.00 0.00 76 1019.0
20260502064645 37 360 0.0 2.0 0.00 0.00 0.00 75 1019.0
20260502064125 37 360 0.0 2.0 0.00 0.00 0.00 75 1019.1
20260502063704 37 360 0.0 3.0 0.00 0.00 0.00 75 1019.2
20260502063207 37 360 1.0 3.0 0.00 0.00 0.00 75 1019.2
20260502062657 37 360 0.0 2.0 0.00 0.00 0.00 75 1019.2
20260502062144 37 292 0.0 2.0 0.00 0.00 0.00 74 1019.2
20260502061635 37 360 0.0 2.0 0.00 0.00 0.00 74 1019.2
20260502061155 37 360 0.0 2.0 0.00 0.00 0.00 74 1019.2
20260502060704 37 360 1.0 2.0 0.00 0.00 0.00 74 1019.2
20260502060138 37 360 0.0 2.0 0.00 0.00 0.00 74 1019.2
20260502055628 37 360 0.0 1.0 0.00 0.00 0.00 74 1019.3
20260502055148 37 360 0.0 2.0 0.00 0.00 0.00 74 1019.3
20260502054638 37 360 1.0 2.0 0.00 0.00 0.00 73 1019.2
20260502054129 37 360 0.0 1.0 0.00 0.00 0.00 73 1019.3
20260502053639 37 360 0.0 1.0 0.00 0.00 0.00 73 1019.3
20260502053144 37 360 0.0 1.0 0.00 0.00 0.00 73 1019.3
20260502052626 37 360 0.0 1.0 0.00 0.00 0.00 73 1019.2
20260502052146 37 360 0.0 1.0 0.00 0.00 0.00 73 1019.2
20260502051639 37 360 0.0 2.0 0.00 0.00 0.00 73 1019.2
20260502051146 37 360 0.0 2.0 0.00 0.00 0.00 73 1019.1
20260502050644 37 360 1.0 4.0 0.00 0.00 0.00 73 1019.1